Regional Weather Roundup
Issued by NWS

Home | Current Version | Previous Version | Graphics & Text | Print | Product List | Glossary On
Versions: 1 2 3 4 5 6 7 8 9 10 11 12 13 14 15 16 17 18 19 20 21 22 23 24 25 26 27 28 29 30 31 32 33 34 35 36 37 38 39 40 41 42 43 44 45 46 47 48 49 50
000
ASUS45 KABQ 310301
RWRNM
WEATHER ROUNDUP FOR NEW MEXICO
NATIONAL WEATHER SERVICE ALBUQUERQUE NM
900 PM MDT THU OCT 30 2014

NOTE: "FAIR" MEANS FEW OR NO CLOUDS BELOW 12,000 FEET AGL WITH NO
       SIGNIFICANT WEATHER OR OBSTRUCTIONS TO VISION.

      THIS PRODUCT IS RELEASED AS TWO VERSIONS.  ONE VERSION NEAR
      THE TOP OF THE HOUR CONTAINING PRELIMINARY DATA FROM ALBUQUERQUE
      AND OTHER STATIONS.  A FINAL VERSION WITH ADDITIONAL DATA IS
      ISSUED ABOUT 10 MINUTES AFTER THE HOUR.

NMZ501-503-504-510>518-310400-
NORTHWEST PLATEAU/NORTHCENTRAL MOUNTAINS

CITY           SKY/WX    TMP DP  RH WIND       PRES   REMARKS
FARMINGTON     CLEAR     46  20  35 NE8       30.26R
LOS ALAMOS     CLEAR     54  19  25 S10       30.41S
SANTA FE       CLEAR     54  20  26 SE13      30.36R
TAOS           CLEAR     43  12  28 E8        30.39R
ANGEL FIRE     FAIR      41  20  42 S7        30.47R

$$
NMZ402-403-502-505>509-310400-
WESTCENTRAL MOUNTAINS/SOUTHWEST MOUNTAINS

CITY           SKY/WX    TMP DP  RH WIND       PRES   REMARKS
GALLUP         CLEAR     47  18  31 CALM      30.30R
GRANTS         CLEAR     54  12  19 S9        30.34S
SILVER CITY    MOCLDY    57  25  28 NE9       30.28R

$$
NMZ407-409-411-412-310400-
SOUTHERN DESERTS

CITY           SKY/WX    TMP DP  RH WIND       PRES   REMARKS
LORDSBURG      FAIR      61  32  33 S9        30.19R
DEMING         MOCLDY    58  33  39 NE9       30.21R
LAS CRUCES     PTCLDY    65  31  28 SE7       30.24R
HOLLOMAN AFB   CLEAR     60  34  37 E10       30.21R
T OR C         CLEAR     64  21  19 NW7       30.23S

$$
NMZ519>523-310400-
CENTRAL VALLEYS/CENTRAL HIGHLANDS

CITY           SKY/WX    TMP DP  RH WIND       PRES   REMARKS
ALBUQUERQUE    CLEAR     63  23  21 E13       30.30R
DOUBLE EAGLE   CLEAR     52  19  28 VRB6      30.32S
MORIARTY ARPT  FAIR      50  21  31 SE9       30.39R
CLINES CORNERS CLEAR     48  20  32 SE10      30.41R
BELEN          NOT AVBL
SOCORRO        FAIR      63  27  25 CALM      30.28R

$$
NMZ524>526-539-540-310400-
SOUTHCENTRAL MOUNTAINS

CITY           SKY/WX    TMP DP  RH WIND       PRES   REMARKS
RUIDOSO        CLEAR     46  27  46 S6        30.44R

$$
NMZ527>531-310400-
NORTHEAST HIGHLANDS/NORTHEAST PLAINS

CITY           SKY/WX    TMP DP  RH WIND       PRES   REMARKS
LAS VEGAS      CLEAR     43  20  39 S9        30.42R
RATON          CLEAR     47  22  37 W3        30.40R
CLAYTON        CLEAR     48  24  39 N6        30.38R

$$
NMZ532>537-310400-
EASTCENTRAL PLAINS

CITY           SKY/WX    TMP DP  RH WIND       PRES   REMARKS
TUCUMCARI      CLEAR     50  24  36 E7        30.32R
CANNON AFB     CLEAR     50  28  43 NE13      30.32R
CLOVIS AIRPORT CLEAR     50  27  40 NE10      30.35R

$$
NMZ028-029-538-310400-
SOUTHEAST PLAINS

CITY           SKY/WX    TMP DP  RH WIND       PRES   REMARKS
ROSWELL        CLEAR     59  34  39 NE7       30.28R
CARLSBAD       CLEAR     61  46  57 NE8       30.23R
HOBBS          CLEAR     59  48  67 NE9       30.28R


$$



USA.gov is the U.S. government's official web portal to all federal, state and local government web resources and services.